Flag for U.S.A. Weather past 2 weeks in Pasadena, California, U.S.A.

Now
82 °F

Sunny.


Feels Like: 82 °F
Forecast: 61 / 87 °F
Wind: 10 mph from South

Location: Burbank-Glendale-Pasadena Airport

Current Time: May 30, 2015 at 4:21:03 PM

Latest Report: May 30, 2015 at 3:53 PM


Visibility: 10 mi

Pressure: 29.85 "Hg

Humidity: 41%

Dew point: 56 °F

Location of PasadenaLocation

Historic Weather in Pasadena — Graph

°F

Pasadena temperature yesterday

Maximum temperature yesterday: 84 °F (at 3:53 PM)
Minimum temperature yesterday: 57 °F (at 4:53 AM)
Average temperature yesterday: 68 °F

Past Weeks' High & Low Weather Summary

 TemperatureHumidityPressure
High84 °F (May 29, 3:53 PM)90% (May 29, 4:53 AM)30.06 "Hg (May 29, 4:53 AM)
Low52 °F (May 16, 4:53 AM)36% (May 29, 3:53 PM)29.78 "Hg (May 15, 4:53 PM)
Average63 °F65%29.94 "Hg
* Reported May 15 2:53 PM — May 30 2:53 PM, Pasadena, Weather by CustomWeather, © 2015

Note: Actual official high and low records may vary slightly from our data, if they occured in-between our weather recording intervals... More about our weather records

Advertising

Pasadena weather history for previous 24 hours

 ConditionsComfort  
Time TempWeatherWind HumidityBarometerVisibility
2:53 PM
Sat, May 30
84 °FSunny.9 mph38%29.87 "Hg10 mi
1:53 PM82 °FSunny.8 mph41%29.89 "Hg10 mi
12:53 PM81 °FSunny.10 mph44%29.90 "Hg7 mi
11:53 AM77 °FSunny.10 mph50%29.91 "Hg6 mi
10:53 AM74 °FSunny.7 mph53%29.92 "Hg6 mi
9:53 AM69 °FSunny.5 mph63%29.92 "Hg4 mi
8:53 AM65 °FSunny.No wind73%29.92 "Hg2 mi
7:53 AM61 °FPartly sunny.No wind83%29.92 "Hg2 mi
6:53 AM59 °FFog.5 mph90%29.90 "Hg1 mi
5:53 AM59 °FFog.8 mph90%29.88 "Hg1 mi
5:04 AM59 °FFog.5 mph88%29.91 "Hg2 mi
4:53 AM60 °FClear.5 mph83%29.87 "Hg3 mi
3:53 AM60 °FClear.No wind83%29.86 "Hg8 mi
2:53 AM62 °FClear.3 mph78%29.87 "Hg8 mi
1:53 AM63 °FClear.3 mph78%29.87 "Hg8 mi
12:53 AM64 °FClear.3 mph75%29.88 "Hg10 mi
11:53 PM
Fri, May 29
65 °FClear.3 mph73%29.89 "Hg10 mi
10:53 PM66 °FClear.5 mph70%29.88 "Hg10 mi
9:53 PM66 °FClear.5 mph70%29.88 "Hg10 mi
8:53 PM68 °FSunny.7 mph65%29.87 "Hg10 mi
7:53 PM71 °FSunny.10 mph59%29.86 "Hg10 mi
6:53 PM74 °FSunny.12 mph53%29.84 "Hg10 mi
5:53 PM80 °FSunny.8 mph42%29.83 "Hg10 mi
4:53 PM83 °FSunny.9 mph38%29.83 "Hg10 mi
Weather by CustomWeather, © 2015

See weather overviewHow to use our weather pages